008  
ASUS42 KILM 202013  
RWRILM  
RWRILM  
REGIONAL HOURLY WEATHER ROUNDUP  
NATIONAL WEATHER SERVICE WILMINGTON NC  
400 PM EDT FRI APR 20 2018  
 
NOTE: "FAIR" INDICATES FEW OR NO CLOUDS BELOW 12,000 FEET WITH NO  
SIGNIFICANT WEATHER AND/OR S TO VISIBILITY
.  
   
..............WFO WILMINGTON COUNTY WARNING AREA............
 
 
   
.....COASTAL NC AND SC COUNTIES...
 
 
 
CITY SKY/WX TMP DP RH WIND PRES REMARKS
 
WILMINGTON FAIR 66 31 27 NE3 30.27F  
N MYRTLE BEACH FAIR 60 39 45 SE9 30.29F  
MYRTLE BEACH FAIR 60 38 43 SE9 30.30F  
   
.....INLAND NC AND SC COUNTIES....
 
 
 
CITY SKY/WX TMP DP RH WIND PRES REMARKS
 
LUMBERTON FAIR 66 29 24 CALM 30.27F  
ELIZABETHTOWN FAIR 65 28 24 MISG 30.28F  
WHITEVILLE FAIR 65 28 24 N3 30.28F  
FLORENCE FAIR 67 27 22 N8 30.29F  
DARLINGTON FAIR 67 29 24 W7 30.29F  
KINGSTREE FAIR 64 23 20 S5 30.29F  
HARTSVILLE FAIR 68 27 21 E3 30.28F  
BENNETTSVILLE FAIR 70 30 23 N5 30.28F  
CONWAY FAIR 64 30 27 NE5 30.28F HAZE  
GEORGETOWN FAIR 61 36 39 SE9 30.30F  
MARION FAIR 64 30 27 N7 30.28F  
   
...................REST OF NORTH CAROLINA...................
 
 
   
........EASTERN NC......
 
 
 
CITY SKY/WX TMP DP RH WIND PRES REMARKS
 
CAPE HATTERAS FAIR 55 36 48 NE9 30.29F  
JACKSONVILLE FAIR 64 30 27 N12 30.28F  
MOREHEAD CITY FAIR 63 34 33 VRB7 30.27F  
KENANSVILLE FAIR 64 27 24 NW9 30.29F  
NEW BERN FAIR 61 30 31 N7 30.28F  
ELIZABETH CITY FAIR 61 29 29 NW12 30.27F  
   
........CENTRAL NC......
 
 
 
CITY SKY/WX TMP DP RH WIND PRES REMARKS
 
RALEIGH DURHAM FAIR 63 28 26 VRB6 30.29F  
ROCKY MOUNT FAIR 62 25 24 W6 30.28F  
ROANOKE RAPIDS NOT AVBL  
FAYETTEVILLE FAIR 67 28 23 NW8 30.27F  
HOFFMAN FAIR 66 27 23 NE9 30.27F  
   
........WESTERN NC......
 
 
 
CITY SKY/WX TMP DP RH WIND PRES REMARKS
 
CHARLOTTE FAIR 66 30 26 N9 30.31F  
GREENSBORO FAIR 64 22 20 VRB6 30.28F  
HICKORY NOT AVBL  
BOONE NOT AVBL  
ASHEVILLE NOT AVBL  
   
....................REST OF SOUTH CAROLINA..................
 
 
   
........EASTERN SC......
 
 
 
CITY SKY/WX TMP DP RH WIND PRES REMARKS
 
CHARLESTON FAIR 67 39 35 E9 30.27F  
BEAUFORT MCAS FAIR 66 44 45 SE5 30.27F  
HILTON HEAD SUNNY 63 45 51 NE6G17 30.29F  
   
........CENTRAL SC......
 
 
 
CITY SKY/WX TMP DP RH WIND PRES REMARKS
 
COLUMBIA FAIR 70 26 19 VRB5 30.28F  
ORANGEBURG FAIR 67 29 24 NE8 30.28F  
SUMTER SHAW FAIR 67 27 22 NE7 30.26F  
   
........WESTERN SC......
 
 
 
CITY SKY/WX TMP DP RH WIND PRES REMARKS
 
GREENVILLE NOT AVBL  
ROCK HILL FAIR 64 28 25 VRB3 30.30F  
ANDERSON FAIR 66 30 26 CALM 30.30F  
CLEMSON NOT AVBL  
GREENWOOD FAIR 65 30 27 N8 30.31F  
 
   
..................COASTAL AND OFFSHORE REPORTS...............
 
 
   
...............LOCAL PIERS AND NC RESERVE.............
 
 
 
STATION/POSITION TIME SKY/WX TEMP WIND PRES VSBY
 
AIR SEA DIR/SP/G  
(UTC) (F) (DEG/KT/KT) (MB) (MI)  
JOHNY MRCER PIER 1948 57 63 120/ 9/ 11 1025.5F  
NC RESRV MASNBRO NOT AVBL  
OCEAN CREST PIER NOT AVBL  
SPRINGMAID PIER 1948 1028.9F  
 
   
...............COASTAL AND OFFSHORE BUOYS.............
 
 
 
STATION/POSITION TIME SKY/WX TEMP WIND PRES VSBY
 
AIR SEA DIR/SP/G  
(UTC) (F) (DEG/KT/KT) (MB) (MI)  
DIMNDSHOAL 41025 2000 51 70 20/ 12/ 16 1025.9  
CAPE LOOKOUT 2000 70/ 11/ 12 1025.4F  
ONSLOW BAY 41036 NOT AVBL  
ONSLOW BAY 41064 1908 55 66 80/ 6/ 8 1026.3F  
ONSLOW BAY 41159 2000 66 N/A  
WVE H/P(F/S)= 3/ 6 SWL H/P/D(F/S/D)= 2/100/11  
 
MASNBO INL 41110 2000 61 N/A  
WVE H/P(F/S)= 3/ 5  
 
WILM HARBR 41108 2000 61 N/A  
WVE H/P(F/S)= 2/ 6  
 
27SE WRITB 41037 1908 56 66 80/ 8/ 12 1026.2F  
FRYING PAN 41013 2000 56 65 70/ 10/ 16 1025.7  
SUNST NRSH 41024 1908 56 62 150/ 10/ 14 1025.9F  
CAPRS NRSH 41029 1908 57 63 90/ 16/ 19 1026.2F  
EDISTO 41004 2000 58 67 40/ 19/ 23 1025.2  
 
   
.........OFFSHORE BUOYS BEYOND 100 NM OFFSHORE........
 
   
....IN A TRIANGLE---HAT TO BERMUDA TO BAHAMAS TO HAT..
 
 
 
 
STATION/POSITION TIME SKY/WX TEMP WIND PRES VSBY
 
AIR SEA DIR/SP/G  
(UTC) (F) (DEG/KT/KT) (MB) (MI)  
150E HAT 41001 NOT AVBL  
W BERMUDA 41048 2000 70 360/ 17/ 19 1020.8  
ATLANTIC S 41049 2000 76 180/ 14/ 17 1022.1  
E BAHAMAS 41046 2000 80 140/ 10/ 14 1020.1  
NE BAHAMAS 41047 1950 290/ 4/ 6 1020.1F  
WVE H/P(F/S)= 4/ 7 SWL H/P/D(F/S/D)= 3/ 10/ 7  
 
120E CANVRL41010 1950 76 75 360/ 8/ 10 1019.9F  
WVE H/P(F/S)= 3/ 8 SWL H/P/D(F/S/D)= 3/ 40/ 8  
 
END  
 
 
CLICK HERE TO GO TO PREVIOUS BULLETINS.

The Nexlab NC Page
The Nexlab SC Page Main Text Page